Weather in Platja de Aro

Spain     41°49′02″N   3°03′59″E
temp.,
°C
wind,
m/s
gust,
m/s
humid.,
%
clouds,
%
prec.,
mm/h
press.,
hPa
HPBL,
m
14 april, wed
wed1423:00+10w2388100 0.0 1023126
02:00+10nw2284100 0.0 102257
05:00+9n237591 0.0 102294
08:00+9nne34705 0.0 1022217
11:00+13ne345110 0.0 1022898
14:00+14ene545022 0.0 10211086
17:00+14ene554778 0.0 1020950
20:00+12ne345883 0.0 1020188
15 april, thu
thu1523:00+9nnw2264100 0.0 102257
02:00+8nnw236513 0.0 102165
05:00+7n34695 0.0 1020119
08:00+7n347016 0.0 1020139
11:00+12ne5650100 0.0 10201004
14:00+13ne6650100 0.0 10191134
17:00+13ene674937 0.0 1018948
20:00+11nne36523 0.0 1018376
16 april, fri
fri1623:00+8nnw46615 0.0 1018142
02:00+7nnw336297 0.0 101876
05:00+7n3463100 0.0 1016125
08:00+9nne51063100 0.0 1016563
11:00+12ne7849100 0.0 10161357
14:00+14ne8741100 0.0 10151915
17:00+12ne91047100 0.0 10151323
20:00+12ne71052100 0.0 10151710
17 april, sat
sat1723:00+10nne9135499 0.0 1016903
02:00+10n9145298 0.0 1015992
05:00+10n9145283 0.0 1015798
08:00+8n7156647 0.0 1014723
11:00+14nne9133495 0.0 10151519
14:00+15nne101130100 0.0 10151282
17:00+15nne793345 0.0 10151471
20:00+13nnw2652100 0.0 1015259
18 april, sun
sun1823:00+9nw336478 0.0 101889
02:00+8wsw23675 0.0 1018118
05:00+7nnw22715 0.0 101859
08:00+8nnw22674 0.0 101874
11:00+13ssw33460 0.0 1019774
14:00+14ssw434921 0.0 10181072
17:00+14s54556 0.0 1018888
20:00+12sw466617 0.0 1019319